Home   Weather   Orkanger/Fannrem   Past weeks

Flag for Norway Past Weather in Orkanger/Fannrem, Norway — Yesterday and Last 2 Weeks

Now
71 °F

Mild.


Feels Like: 76 °F
Forecast: 49 / 62 °F
Wind: 3 mph from Southeast

Location: Marstein

Current Time: Sep 25, 2016 at 5:48:49 PM

Latest Report: Sep 25, 2016 at 5:00 PM


Visibility: N/A

Pressure: 29.80 "Hg

Humidity: 32%

Dew Point: 40 °F

Location of Orkanger/FannremLocation

Past Weather in Orkanger/Fannrem — Graph

°F

Orkanger/Fannrem Temperature Yesterday

Maximum temperature yesterday: 64 °F (at 7:00 PM)
Minimum temperature yesterday: 46 °F (at 4:00 AM)
Average temperature yesterday: 53 °F

High & Low Weather Summary for the Past Weeks

 TemperatureHumidityPressure
High75 °F (Sep 16, 1:00 PM)94% (Sep 11, 9:00 AM)30.20 "Hg (Sep 11, 9:00 AM)
Low45 °F (Sep 12, 2:00 AM)31% (Sep 12, 2:00 PM)29.63 "Hg (Sep 11, 8:00 AM)
Average58 °F78%30.02 "Hg
* Reported Sep 10 4:00 PM — Sep 25 4:00 PM, Orkanger/Fannrem, Weather by CustomWeather, © 2016

Note: Actual official high and low records may vary slightly from our data, if they occured in-between our weather recording intervals... More about our weather records

Advertising

Orkanger/Fannrem Weather History for the Previous 24 Hours

Scroll right to see more
 ConditionsComfort  
Time TempWeatherWind HumidityBarometerVisibility
4:00 PM
Sun, Sep 25
72 °FMild.3 mph32%29.81 "HgN/A
3:00 PM71 °FMild.2 mph34%29.81 "HgN/A
2:00 PM69 °FMild.3 mph33%29.82 "HgN/A
1:00 PM62 °FRefreshingly cool.2 mph58%29.84 "HgN/A
12:00 PM64 °FMild.1 mph43%29.83 "HgN/A
11:00 AM66 °FMild.3 mph38%29.82 "HgN/A
10:00 AM65 °FMild.2 mph39%29.81 "HgN/A
9:00 AM66 °FMild.5 mph39%29.79 "HgN/A
8:00 AM65 °FMild.2 mph39%29.78 "HgN/A
7:00 AM65 °FMild.2 mph43%29.78 "HgN/A
6:00 AM65 °FMild.3 mph39%29.78 "HgN/A
5:00 AM65 °FMild.5 mph42%29.80 "HgN/A
4:00 AM63 °FMild.2 mph47%29.80 "HgN/A
3:00 AM63 °FMild.2 mph48%29.80 "HgN/A
2:00 AM65 °FMild.5 mph45%29.79 "HgN/A
1:00 AM63 °FMild.5 mph48%29.79 "HgN/A
12:00 AM62 °FRefreshingly cool.7 mph47%29.79 "HgN/A
11:00 PM
Sat, Sep 24
60 °FRefreshingly cool.2 mph49%29.81 "HgN/A
10:00 PM61 °FRefreshingly cool.3 mph45%29.80 "HgN/A
9:00 PM60 °FRefreshingly cool.7 mph49%29.80 "HgN/A
8:00 PM60 °FRefreshingly cool.5 mph47%29.80 "HgN/A
7:00 PM64 °FMild.6 mph37%29.80 "HgN/A
6:00 PM62 °FRefreshingly cool.5 mph47%29.80 "HgN/A
5:00 PM61 °FRefreshingly cool.6 mph50%29.82 "HgN/A
Weather by CustomWeather, © 2016

See weather overviewHow to use our weather pages